SY4AIL-13 Weather Reports


time (UTC)temp
C
wind
direction
speed
KPH
gust
KPH
rain 1hr
cm
rain 24hr
cm
rain mn
cm
humidity
%
barometer
mb
20260504020603 6 0.0 0.0 0.00 0.00 0.00 10 1027.5
20260504015516 6 0.0 0.0 0.00 0.00 0.00 99 1027.2
20260504014516 6 0.0 0.0 0.00 0.00 0.00 10 1027.4
20260504013516 6 0.0 0.0 0.00 0.00 0.00 10 1027.2
20260504012531 6 0.0 0.0 0.00 0.00 0.00 10 1028.0
20260504011516 7 0.0 0.0 0.00 0.00 0.00 10 1026.6
20260504010516 6 0.0 0.0 0.00 0.00 0.00 10 1027.6
20260504005546 7 0.0 0.0 0.00 0.00 0.00 10 1026.8
20260504004516 7 0.0 0.0 0.00 0.00 0.00 10 1026.3
20260504003516 7 0.0 0.0 0.00 0.00 0.00 10 1026.4
20260504002516 7 0.0 0.0 0.00 0.00 0.00 10 1027.2
20260504001516 7 0.0 0.0 0.00 0.00 0.00 98 1027.0
20260504000532 7 0.0 0.0 0.00 0.00 0.00 10 1026.9
20260503235516 7 0.0 0.0 0.00 0.00 0.00 98 1026.8
20260503234516 7 0.0 0.0 0.00 0.00 0.00 98 1026.5
20260503233516 7 0.0 0.0 0.00 0.00 0.00 99 1026.4
20260503232516 7 0.0 0.0 0.00 0.00 0.00 98 1027.0
20260503231516 7 0.0 0.0 0.00 0.00 0.00 99 1027.3
20260503230516 7 0.0 0.0 0.00 0.00 0.00 98 1027.4
20260503225516 8 0.0 0.0 0.00 0.00 0.00 99 1026.9
20260503224531 8 0.0 0.0 0.00 0.00 0.00 10 1027.3
20260503223516 8 0.0 0.0 0.00 0.00 0.00 99 1026.9
20260503222531 8 0.0 0.0 0.00 0.00 0.00 98 1026.8
20260503221556 8 0.0 0.0 0.00 0.00 0.00 10 1026.7
20260503220516 8 0.0 0.0 0.00 0.00 0.00 10 1027.0
20260503215534 8 0.0 0.0 0.00 0.00 0.00 10 1027.3
20260503214517 8 0.0 0.0 0.00 0.00 0.00 10 1027.1
20260503213516 8 0.0 0.0 0.00 0.00 0.00 10 1026.4
20260503212531 8 0.0 0.0 0.00 0.00 0.00 99 1027.7
20260503211516 8 0.0 0.0 0.00 0.00 0.00 99 1027.1
20260503210518 8 0.0 0.0 0.00 0.00 0.00 10 1048.5
20260503204238 104 0.0 0.0 0.00 0.00 0.00 10 1826.5
20260503203238 -70 0.0 0.0 0.00 0.00 0.00 98 1199.8
20260503202238 104 0.0 0.0 0.00 0.00 0.00 10 1815.3
20260503201253 -53 0.0 0.0 0.00 0.00 0.00 10 1561.4
20260503200238 181 0.0 0.0 0.00 0.00 0.00 10
20260503195248 182 0.0 0.0 0.00 0.00 0.00 10 1811.5
20260503194238 -26 0.0 0.0 0.00 0.00 0.00 90 1729.7
20260503193238 -28 0.0 0.0 0.00 0.00 0.00 85 1731.1
20260503192248 172 0.0 0.0 0.00 0.00 0.00 10 1095.2
20260503191240 172 0.0 0.0 0.00 0.00 0.00 10 1116.1
20260503190253 104 0.0 0.0 0.00 0.00 0.00 10 1826.5
20260503185237 -53 0.0 0.0 0.00 0.00 0.00 10 1561.4
20260503184238 181 0.0 0.0 0.00 0.00 0.00 10
20260503183238 -70 0.0 0.0 0.00 0.00 0.00 98 1199.8
20260503182253 -26 0.0 0.0 0.00 0.00 0.00 90 1718.4
20260503181238 -26 0.0 0.0 0.00 0.00 0.00 90 1746.3
20260503180238 -53 0.0 0.0 0.00 0.00 0.00 10 1561.4
20260503175238 104 0.0 0.0 0.00 0.00 0.00 10 1826.5
20260503174238 -24 0.0 0.0 0.00 0.00 0.00 94 1811.8
20260503173238 104 0.0 0.0 0.00 0.00 0.00 10 1861.8
20260503172239 104 0.0 0.0 0.00 0.00 0.00 10 1826.5
20260503171253 -26 0.0 0.0 0.00 0.00 0.00 90 1744.1
20260503170237 141 0.0 0.0 0.00 0.00 0.00 10 1431.7
20260503150238 104 0.0 0.0 0.00 0.00 0.00 10 1861.8
20260503140237 -28 0.0 0.0 0.00 0.00 0.00 85 1146.6
20260503131255 -26 0.0 0.0 0.00 0.00 0.00 90 1720.1
20260503130238 104 0.0 0.0 0.00 0.00 0.00 10 1820.4
20260503110237 120 0.0 0.0 0.00 0.00 0.00 10 1842.6
20260503100237 -26 0.0 0.0 0.00 0.00 0.00 90 1720.1
20260503090237 31 0.0 0.0 0.00 0.00 0.00 10 1417.1
20260503081237 13 0.0 0.0 0.00 0.00 0.00 72 1026.8
20260503080238 14 0.0 0.0 0.00 0.00 0.00 74 1023.6
20260503072237 11 0.0 0.0 0.00 0.00 0.00 98 1025.7
20260503071237 11 0.0 0.0 0.00 0.00 0.00 95 1025.2
20260503070237 11 0.0 0.0 0.00 0.00 0.00 92 1025.3
20260503060237 11 0.0 0.0 0.00 0.00 0.00 88 1025.2
20260503054237 10 0.0 0.0 0.00 0.00 0.00 98 1024.5
20260503053236 10 0.0 0.0 0.00 0.00 0.00 99 1025.0
20260503052252 10 0.0 0.0 0.00 0.00 0.00 10 1025.2
20260503051237 10 0.0 0.0 0.00 0.00 0.00 10 1024.8
20260503050236 10 0.0 0.0 0.00 0.00 0.00 10 1024.7
20260503045237 9 0.0 0.0 0.00 0.00 0.00 10 1024.5
20260503044237 8 0.0 0.0 0.00 0.00 0.00 10 1024.8
20260503043237 8 0.0 0.0 0.00 0.00 0.00 10 1024.2
20260503042252 7 0.0 0.0 0.00 0.00 0.00 10 1027.5
20260503041236 8 0.0 0.0 0.00 0.00 0.00 10 1025.4
20260503040236 9 0.0 0.0 0.00 0.00 0.00 10 1024.4
20260503035237 8 0.0 0.0 0.00 0.00 0.00 10 1024.8
20260503034237 8 0.0 0.0 0.00 0.00 0.00 10 1024.6
20260503033237 8 0.0 0.0 0.00 0.00 0.00 10 1025.1
20260503032252 8 0.0 0.0 0.00 0.00 0.00 10 1024.7
20260503031236 8 0.0 0.0 0.00 0.00 0.00 10 1024.7
20260503030236 8 0.0 0.0 0.00 0.00 0.00 10 1023.9
20260503025236 8 0.0 0.0 0.00 0.00 0.00 10 1024.0
20260503024236 8 0.0 0.0 0.00 0.00 0.00 10 1026.4
20260503023236 8 0.0 0.0 0.00 0.00 0.00 10 1024.1
20260503022308 8 0.0 0.0 0.00 0.00 0.00 10 1024.4
20260503021237 8 0.0 0.0 0.00 0.00 0.00 10 1024.2